[[{"header":{"parameterUnit":"m.s-1","parameterCategory":1,"la1":30.2991,"la2":30.254,"lo1":-89.0895,"lo2":-89.0444,"dy":0.0017,"dx":0.0017,"nx":28,"ny":28,"refTime":"2023-10-20T03:00:00:Z","depth":0,"parameterNumber":2,"parameterNumberName":"U-component_of_WINDS"},"data":[0,0,0,0,0,0,0,0,0,0,0,0,0,0,0,0,0,0,0,0,0,0,0,0,0,0,0,0,0,0,0,0,0,0,0,0,0,0,0,0,0,0,0,0,0,0,0,0,0,0,0,0,0,0,0,0,0,0,-2.8275,-2.8274,0,-2.82,-2.8199,-2.8198,-2.8054,-2.8051,-2.8048,-2.8045,-2.7971,-2.7971,-2.7972,0,0,0,0,0,0,0,0,0,0,0,0,0,-2.8298,-2.8299,-2.8275,-2.8274,-2.8273,-2.82,-2.8199,-2.8198,-2.8054,-2.8051,-2.8047,-2.8044,-2.797,-2.7971,-2.7972,0,0,0,0,0,0,0,0,0,0,0,0,0,-2.8263,-2.8299,-2.8275,-2.8193,-2.8184,-2.82,-2.8199,-2.8198,-2.8055,-2.8051,-2.8046,-2.8042,-2.797,-2.7971,-2.7972,-2.8063,0,0,-2.7975,-2.7975,0,0,0,0,0,0,0,0,-2.8265,-2.8262,-2.8206,-2.8198,-2.8189,-2.8132,-2.8179,-2.8152,-2.8056,-2.8104,-2.8045,-2.804,-2.8028,-2.8024,-2.8019,-2.8059,-2.8056,-2.7975,-2.7976,-2.7976,-2.7976,0,0,0,0,0,0,0,-2.8267,-2.8264,-2.8245,-2.8205,-2.8195,-2.8161,-2.8151,-2.8174,-2.8091,-2.81,-2.8089,-2.8082,-2.8022,-2.8018,-2.8016,-2.8055,-2.7975,-2.7976,-2.7976,-2.7977,-2.8169,-2.8173,0,0,0,0,0,0,-2.8281,-2.8267,-2.8248,-2.8243,-2.8217,-2.8164,-2.8153,-2.8154,-2.809,-2.8076,-2.8086,-2.8075,-2.8019,-2.8015,-2.8013,-2.8116,-2.7976,-2.7977,-2.7977,-2.8164,-2.8169,-2.8174,0,0,0,0,0,0,-2.8283,-2.8281,-2.8251,-2.8252,-2.8246,-2.8168,-2.8171,-2.8155,-2.8151,-2.8079,-2.8064,-2.8096,-2.8015,-2.8012,-2.8052,-2.8111,-2.7977,-2.7978,-2.8159,-2.8166,-2.8172,-2.8322,0,0,0,0,0,0,-2.8284,-2.8282,-2.8315,-2.8254,-2.8246,-2.829,-2.8175,-2.8157,-2.8153,-2.8139,-2.8085,-2.8073,-2.8012,-2.8051,-2.8053,-2.811,-2.7979,-2.8153,-2.8162,-2.817,-2.8312,-2.8333,-2.8352,0,0,0,0,0,-2.8285,-2.836,-2.8317,-2.8315,-2.8285,-2.8293,-2.8289,-2.8217,-2.8158,-2.8191,-2.8145,-2.8074,-2.8105,-2.8056,-2.8057,-2.8116,-2.8149,-2.8159,-2.8169,-2.8302,-2.8329,-2.8351,0,0,0,0,0,0,-2.8429,-2.835,-2.8302,-2.8359,-2.8334,-2.8269,-2.8308,-2.8247,-2.8238,-2.8226,-2.8137,-2.8127,-2.8179,-2.8151,-2.8099,-2.8201,-2.8116,-2.8127,-2.8217,-2.8242,-2.8261,-2.8266,-2.798,0,0,0,0,0,-2.8468,-2.8481,-2.8411,-2.8469,-2.8459,-2.8386,-2.8387,-2.8334,-2.8305,-2.8293,-2.8251,-2.8226,-2.823,-2.8234,-2.8234,-2.8308,-2.8295,-2.8349,-2.8369,-2.8386,-2.8396,-2.8434,-2.8458,-2.8208,-2.8208,-2.8207,0,0,-2.8548,-2.8506,-2.8519,-2.8497,-2.8471,-2.8487,-2.8378,-2.8399,-2.8411,-2.8297,-2.8332,-2.8301,-2.8267,-2.8325,-2.8349,-2.8304,-2.8462,-2.8399,-2.8413,-2.8413,-2.8447,-2.8471,-2.8492,-2.8215,-2.8213,-2.8212,0,0,-2.8701,-2.867,-2.8715,-2.8692,-2.8655,-2.8607,-2.8619,-2.8563,-2.8538,-2.8572,-2.8487,-2.8501,-2.851,-2.849,-2.8481,-2.8632,-2.8566,-2.8634,-2.8739,-2.8778,-2.8797,-2.8814,-2.8869,-2.8889,-2.8645,-2.8645,-2.8645,0,-2.8804,-2.8824,-2.8746,-2.8773,-2.8767,-2.8665,-2.8711,-2.8693,-2.8659,-2.8657,-2.8608,-2.8618,-2.8588,-2.8641,-2.8678,-2.8674,-2.8685,-2.8639,-2.8801,-2.8817,-2.8832,-2.8882,-2.8903,-2.8653,-2.8653,-2.8652,-2.8651,0,-2.8954,-2.8969,-2.9011,-2.898,-2.8978,-2.9015,-2.8944,-2.8952,-2.8901,-2.8859,-2.8896,-2.8858,-2.8849,-2.8858,-2.8807,-2.8904,-2.8878,-2.8816,-2.8728,-2.8865,-2.8912,-2.893,-2.8666,-2.8663,-2.866,-2.8658,0,0,-2.9192,-2.912,-2.9136,-2.9122,-2.9076,-2.9087,-2.9121,-2.9112,-2.9121,-2.9102,-2.9128,-2.914,-2.9083,-2.9074,-2.9021,-2.9055,-2.9178,-2.8989,-2.8987,-2.9026,-2.9284,-2.9331,-2.9354,-2.9136,-2.9139,-2.9142,-2.9287,0,-2.9334,-2.9386,-2.9318,-2.9386,-2.94,-2.9306,-2.9336,-2.9312,-2.9274,-2.9283,-2.9241,-2.9251,-2.9175,-2.9169,-2.9199,-2.9157,-2.9229,-2.9145,-2.916,-2.9162,-2.9171,-2.9378,-2.9426,-2.9565,-2.9305,-2.9308,-2.931,0,-2.9505,-2.9495,-2.9564,-2.9516,-2.9519,-2.9547,-2.9535,-2.9543,-2.9516,-2.9486,-2.9478,-2.9415,-2.9446,-2.9363,-2.9406,-2.9351,-2.9354,-2.9335,-2.9338,-2.9336,-2.9243,-2.9382,-2.9608,-2.9629,-2.9338,-2.9335,-2.9333,0,-2.9673,-2.9676,-2.9718,-2.9709,-2.9654,-2.9676,-2.9654,-2.9621,-2.9622,-2.9612,-2.9611,-2.9606,-2.9603,-2.9602,-2.954,-2.9485,-2.9592,-2.9502,-2.9569,-2.9571,-2.9594,-2.9593,-2.9824,-2.9598,-2.9598,-2.9597,-2.9597,0,-2.9838,-2.9884,-2.9793,-2.9818,-2.9868,-2.9792,-2.9844,-2.9813,-2.9786,-2.9805,-2.9724,-2.9744,-2.9662,-2.9674,-2.9627,-2.9671,-2.967,-2.9648,-2.9635,-2.9655,-2.9658,-2.9655,-2.9643,-2.9603,-2.9601,-2.96,-2.9599,0,-3.0032,-2.9973,-3.0012,-2.9958,-2.9945,-2.9985,-2.9938,-2.9961,-2.992,-2.9946,-2.9947,-2.9883,-2.9894,-2.9833,-2.9832,-2.98,-2.9868,-2.9838,-2.9877,-2.9868,-2.9938,-2.9933,-3.0174,-3.0202,-2.9959,-2.9962,-2.9964,0,-3.014,-3.0173,-3.0123,-3.013,-3.0113,-3.0125,-3.0125,-3.0053,-3.0057,-3.003,-3.0056,-3.006,-3.0059,-3.0081,-3.0035,-3.0035,-3.0005,-3.009,-3.0004,-3.0024,-3.0006,-3.0005,-3.0009,-3.0107,-3.011,-3.0113,-3.0115,0,-3.0339,-3.0309,-3.0312,-3.0306,-3.0308,-3.03,-3.0286,-3.0297,-3.022,-3.0229,-3.0238,-3.0238,-3.0238,-3.0244,-3.0235,-3.0214,-3.0153,-3.0143,-3.0158,-3.0178,-3.0199,-3.0189,-2.9925,-3.0137,-3.0134,-3.0133,-3.0132,-3.0131,-3.0493,-3.0519,-3.0489,-3.0495,-3.0478,-3.0468,-3.0487,-3.045,-3.0456,-3.045,-3.0408,-3.0427,-3.0401,-3.0383,-3.0369,-3.0383,-3.0343,-3.0365,-3.0371,-3.0377,-3.039,-3.0199,-3.0382,-3.0381,-3.038,-3.038,-3.0379,0,-3.0688,-3.0665,-3.0672,-3.0656,-3.0662,-3.0604,-3.0587,-3.0596,-3.0613,-3.0595,-3.0596,-3.0609,-3.0615,-3.0571,-3.0572,-3.0592,-3.0564,-3.0595,-3.0592,-3.0589,-3.0426,-3.0412,-3.0618,-3.0618,-3.0618,-3.0618,-3.0618,-3.0618,-3.079,-3.0831,-3.0799,-3.0832,-3.0808,-3.0825,-3.0821,-3.0812,-3.0797,-3.0815,-3.082,-3.0791,-3.0763,-3.0762,-3.0766,-3.0753,-3.0757,-3.0797,-3.0775,-3.0623,-3.06,-3.0578,-3.0565,-3.0799,-3.0799,-3.0937,-3.0938,-3.0939]},{"header":{"parameterUnit":"m.s-1","parameterCategory":1,"la1":30.2991,"la2":30.254,"lo1":-89.0895,"lo2":-89.0444,"dy":0.0017,"dx":0.0017,"nx":28,"ny":28,"refTime":"2023-10-20T03:00:00:Z","depth":0,"parameterNumber":3,"parameterNumberName":"V-component_of_WINDS"},"data":[0,0,0,0,0,0,0,0,0,0,0,0,0,0,0,0,0,0,0,0,0,0,0,0,0,0,0,0,0,0,0,0,0,0,0,0,0,0,0,0,0,0,0,0,0,0,0,0,0,0,0,0,0,0,0,0,0,0,2.2696,2.2696,0,2.2666,2.2665,2.2665,2.2707,2.2708,2.271,2.2711,2.2673,2.2671,2.2668,0,0,0,0,0,0,0,0,0,0,0,0,0,2.2786,2.2784,2.2696,2.2696,2.2695,2.2666,2.2665,2.2665,2.2706,2.2708,2.271,2.2712,2.2674,2.2671,2.2668,0,0,0,0,0,0,0,0,0,0,0,0,0,2.275,2.2783,2.2696,2.2713,2.2714,2.2666,2.2665,2.2665,2.2706,2.2708,2.2711,2.2713,2.2675,2.2671,2.2668,2.26,0,0,2.2657,2.2655,0,0,0,0,0,0,0,0,2.2752,2.2746,2.2711,2.2712,2.2713,2.2693,2.2683,2.2643,2.2705,2.2709,2.2711,2.2714,2.2677,2.2674,2.2663,2.2598,2.2596,2.2656,2.2654,2.2653,2.2651,0,0,0,0,0,0,0,2.2754,2.2748,2.2684,2.271,2.2711,2.272,2.2718,2.2675,2.268,2.2709,2.2712,2.2708,2.2678,2.2666,2.2662,2.2596,2.2656,2.2653,2.2651,2.2649,2.2475,2.2473,0,0,0,0,0,0,2.2756,2.275,2.2685,2.2683,2.2739,2.2717,2.2714,2.2697,2.2681,2.2681,2.2706,2.271,2.2671,2.2666,2.2661,2.2581,2.2653,2.2649,2.2647,2.2478,2.2475,2.2472,0,0,0,0,0,0,2.2757,2.2749,2.2686,2.2717,2.271,2.2713,2.2693,2.2695,2.2683,2.2679,2.268,2.2693,2.2673,2.2666,2.2615,2.258,2.2648,2.2644,2.248,2.2477,2.2473,2.2419,0,0,0,0,0,0,2.276,2.275,2.2725,2.2716,2.2708,2.2642,2.2691,2.2693,2.2677,2.2682,2.2667,2.2667,2.2674,2.2621,2.2612,2.2576,2.2641,2.2484,2.2479,2.2474,2.2424,2.2414,2.2406,0,0,0,0,0,2.2763,2.2709,2.2723,2.2715,2.2677,2.264,2.2635,2.2647,2.2674,2.2648,2.2647,2.2667,2.2586,2.2615,2.2606,2.2568,2.2486,2.248,2.2475,2.2428,2.2416,2.2406,0,0,0,0,0,0,2.271,2.2708,2.2724,2.2666,2.2654,2.2647,2.2615,2.2633,2.261,2.2616,2.2629,2.2625,2.2572,2.2565,2.2598,2.2502,2.254,2.2532,2.2508,2.2497,2.2488,2.2489,2.2638,0,0,0,0,0,2.2693,2.2664,2.2664,2.2613,2.2606,2.2612,2.2596,2.2607,2.2593,2.2586,2.2581,2.2565,2.2536,2.2516,2.2489,2.2425,2.2421,2.2394,2.2385,2.2377,2.237,2.2336,2.2323,2.2454,2.2454,2.2454,0,0,2.2654,2.265,2.2631,2.2602,2.2593,2.2562,2.2607,2.2571,2.2548,2.258,2.2533,2.2528,2.2512,2.2454,2.2428,2.2447,2.2334,2.237,2.2364,2.2361,2.2329,2.2316,2.2305,2.245,2.2451,2.2451,0,0,2.2569,2.2563,2.2521,2.2512,2.25,2.2504,2.2494,2.2486,2.2485,2.2438,2.2462,2.2434,2.2384,2.2371,2.2358,2.2271,2.2289,2.2262,2.2213,2.2179,2.2169,2.216,2.2128,2.2117,2.2255,2.2255,2.2255,0,2.2522,2.2478,2.2496,2.246,2.2447,2.2478,2.2434,2.2424,2.2402,2.2392,2.2414,2.2353,2.2344,2.2284,2.2263,2.2252,2.2239,2.2263,2.2169,2.216,2.2152,2.2122,2.211,2.2252,2.2252,2.2252,2.2253,0,2.2422,2.2391,2.2358,2.2339,2.2323,2.2283,2.2293,2.2274,2.2286,2.2288,2.2241,2.2231,2.2204,2.2191,2.2201,2.2132,2.2144,2.2168,2.2205,2.2136,2.2108,2.2097,2.2247,2.2248,2.2249,2.225,0,0,2.2299,2.2294,2.2281,2.2273,2.2263,2.2239,2.2201,2.2176,2.2159,2.2144,2.2111,2.207,2.2092,2.2077,2.2087,2.2058,2.199,2.2085,2.2085,2.2067,2.1912,2.1894,2.188,2.2003,2.2001,2.1999,2.1914,0,2.2214,2.215,2.2166,2.2102,2.2074,2.2105,2.2072,2.2061,2.2062,2.2037,2.2039,2.2009,2.2041,2.2032,2.2005,2.2004,2.1958,2.201,2.197,2.1969,2.1972,2.1866,2.1846,2.1766,2.1903,2.1901,2.19,0,2.2105,2.2088,2.2022,2.2019,2.2007,2.1977,2.1957,2.1934,2.1922,2.1925,2.1911,2.1927,2.1888,2.1929,2.1875,2.191,2.1895,2.1892,2.1889,2.1884,2.1929,2.1857,2.174,2.1728,2.1883,2.1884,2.1885,0,2.2021,2.1982,2.1938,2.1931,2.1926,2.1904,2.19,2.1892,2.1876,2.1858,2.1848,2.1825,2.1812,2.1793,2.1802,2.1831,2.1746,2.1787,2.1746,2.1746,2.1725,2.1726,2.1603,2.1718,2.1718,2.1718,2.1719,0,2.1923,2.1881,2.1901,2.1874,2.1828,2.1847,2.18,2.18,2.1792,2.1764,2.1789,2.1762,2.1777,2.1751,2.1758,2.1712,2.1706,2.1706,2.1708,2.1703,2.1703,2.1692,2.1697,2.1715,2.1716,2.1717,2.1717,0,2.1821,2.1833,2.1787,2.1787,2.1786,2.1752,2.1751,2.1725,2.173,2.1694,2.1687,2.1694,2.1664,2.1673,2.164,2.1645,2.1587,2.1596,2.1591,2.1593,2.1551,2.1555,2.1416,2.1398,2.1525,2.1524,2.1523,0,2.1756,2.1726,2.1723,2.1708,2.1703,2.1678,2.1663,2.1681,2.1665,2.1651,2.1626,2.16,2.158,2.1531,2.1532,2.1507,2.1516,2.1469,2.1512,2.1508,2.1514,2.1515,2.1512,2.1459,2.1458,2.1457,2.1456,0,2.1641,2.1649,2.1629,2.1611,2.1594,2.158,2.1568,2.1553,2.157,2.1551,2.1523,2.1507,2.1476,2.1449,2.1427,2.1421,2.144,2.1443,2.1432,2.1425,2.1423,2.1423,2.1566,2.1445,2.1446,2.1447,2.1448,2.1448,2.1555,2.153,2.1525,2.1501,2.1495,2.1484,2.146,2.1464,2.1441,2.1419,2.143,2.1398,2.1388,2.1361,2.1353,2.1327,2.1344,2.1329,2.1324,2.132,2.1314,2.1429,2.1323,2.1323,2.1324,2.1324,2.1324,0,2.144,2.144,2.1418,2.1403,2.1384,2.1408,2.1397,2.1379,2.1351,2.1342,2.1322,2.129,2.1265,2.1265,2.1241,2.122,2.1228,2.1213,2.1213,2.1212,2.13,2.1312,2.1207,2.1207,2.1207,2.1207,2.1207,2.1207,2.1378,2.1337,2.1345,2.13,2.1299,2.1269,2.1261,2.125,2.1243,2.1207,2.1188,2.1189,2.1183,2.116,2.1137,2.1138,2.1127,2.1108,2.1112,2.1194,2.1206,2.1217,2.1227,2.1106,2.1106,2.1026,2.1025,2.1024]}]]